JA0BES-13 Weather Reports


time (UTC)temp
F
wind
direction
speed
knots
gust
knots
rain 1hr
in
rain 24hr
in
rain mn
in
humidity
%
barometer
mb
20260509120856 56 180 0.0 0.0 0.00 0.00 0.01 63 1016.6
20260509115856 56 180 0.0 0.0 0.00 0.00 0.01 62 1016.4
20260509114855 56 180 0.0 0.0 0.00 0.00 0.01 61 1016.2
20260509113855 56 180 0.0 0.0 0.00 0.00 0.01 60 1016.0
20260509112854 56 180 0.0 0.0 0.00 0.00 0.01 59 1015.8
20260509111854 56 180 0.0 0.0 0.00 0.00 0.01 58 1015.8
20260509110853 56 225 0.0 0.0 0.00 0.00 0.01 56 1015.5
20260509105853 56 200 0.0 0.9 0.00 0.00 0.01 55 1015.3
20260509104853 57 180 0.0 0.0 0.00 0.00 0.01 53 1015.1
20260509103853 58 220 0.0 0.0 0.00 0.00 0.01 53 1015.3
20260509102852 58 182 0.0 0.0 0.00 0.00 0.01 52 1015.0
20260509101852 58 173 0.0 0.0 0.00 0.00 0.01 51 1014.7
20260509100851 59 175 0.0 0.0 0.00 0.00 0.01 50 1014.3
20260509094848 60 186 0.9 3.5 0.00 0.00 0.01 47 1014.2
20260509093848 61 132 1.7 3.5 0.00 0.00 0.01 45 1014.0
20260509092847 62 180 0.0 0.0 0.00 0.00 0.01 44 1013.9
20260509091847 62 225 0.0 0.0 0.00 0.00 0.01 44 1013.6
20260509090846 62 166 0.0 1.7 0.00 0.00 0.01 42 1013.4
20260509085846 63 180 0.0 0.0 0.00 0.00 0.01 42 1013.4
20260509084846 63 151 0.9 1.7 0.00 0.00 0.01 40 1013.3
20260509083845 63 225 0.0 0.9 0.00 0.00 0.01 39 1013.3
20260509082845 64 180 0.0 1.7 0.00 0.00 0.01 39 1013.2
20260509081845 65 153 0.0 0.9 0.00 0.00 0.01 38 1012.9
20260509080844 65 225 0.0 0.9 0.00 0.00 0.01 38 1012.9
20260509075844 66 198 0.0 0.9 0.00 0.00 0.01 38 1012.9
20260509074843 66 180 0.0 0.0 0.00 0.00 0.01 37 1012.9
20260509073843 66 225 0.0 0.9 0.00 0.00 0.01 37 1012.9
20260509072843 67 189 0.0 0.9 0.00 0.00 0.01 36 1012.6
20260509071843 67 184 0.0 0.9 0.00 0.00 0.01 36 1012.3
20260509070842 67 220 0.0 0.9 0.00 0.00 0.01 36 1012.4
20260509064838 67 225 0.0 0.9 0.00 0.00 0.01 35 1012.3
20260509063838 67 225 0.0 3.5 0.00 0.00 0.01 34 1012.2
20260509062838 67 225 0.0 0.9 0.00 0.00 0.01 34 1012.2
20260509061838 68 115 0.9 1.7 0.00 0.00 0.01 34 1012.3
20260509060837 67 211 0.0 1.7 0.00 0.00 0.01 34 1012.2
20260509055837 67 132 0.0 1.7 0.00 0.00 0.01 33 1012.3
20260509054836 68 207 0.0 2.6 0.00 0.00 0.01 34 1012.2
20260509053836 67 234 0.0 9.6 0.00 0.00 0.01 31 1012.2
20260509052836 68 220 1.7 5.2 0.00 0.00 0.01 32 1012.2
20260509051836 69 220 0.9 1.7 0.00 0.00 0.01 33 1012.3
20260509050835 69 225 0.0 2.6 0.00 0.00 0.01 34 1012.3
20260509045835 68 165 0.0 6.1 0.00 0.00 0.01 33 1012.2
20260509044834 68 182 0.0 3.5 0.00 0.00 0.01 34 1012.1
20260509043834 68 261 3.5 7.8 0.00 0.00 0.01 31 1012.2
20260509042833 69 225 0.0 2.6 0.00 0.00 0.01 37 1012.3
20260509041833 69 193 0.0 0.9 0.00 0.00 0.01 38 1012.3
20260509040833 69 112 2.6 2.6 0.00 0.00 0.01 36 1012.2
20260509035833 68 207 0.0 0.9 0.00 0.00 0.01 39 1012.2
20260509034832 68 238 0.9 2.6 0.00 0.00 0.01 41 1012.2
20260509033832 68 157 1.7 1.7 0.00 0.00 0.01 41 1012.1
20260509032831 67 138 0.9 1.7 0.00 0.00 0.01 42 1012.2
20260509031831 67 126 1.7 2.6 0.00 0.00 0.01 44 1012.1
20260509030831 66 192 0.0 1.7 0.00 0.00 0.01 45 1012.1
20260509025831 65 210 0.0 3.5 0.00 0.00 0.01 51 1011.8
20260509024830 64 225 0.0 0.9 0.00 0.00 0.01 59 1012.0
20260509023830 63 96 0.9 1.7 0.00 0.00 0.01 61 1012.3
20260509022829 62 45 0.0 2.6 0.00 0.00 0.01 63 1012.1
20260509021829 62 125 1.7 2.6 0.00 0.00 0.01 63 1012.2
20260509020828 62 96 1.7 6.1 0.00 0.00 0.01 63 1012.4
20260509015828 62 207 0.0 5.2 0.00 0.00 0.01 67 1012.4
20260509014828 61 108 2.6 2.6 0.00 0.00 0.01 71 1012.7
20260509013828 60 218 0.9 2.6 0.00 0.00 0.01 72 1012.5
20260509012827 59 202 0.0 1.7 0.00 0.00 0.01 75 1012.7
20260509011827 58 180 0.0 1.7 0.00 0.00 0.01 78 1012.9
20260509010826 57 105 0.9 1.7 0.00 0.00 0.01 79 1012.9
20260509005826 56 222 0.9 4.3 0.00 0.00 0.01 79 1012.5
20260509004826 55 243 0.9 2.6 0.00 0.00 0.01 79 1012.7
20260509003826 55 315 0.0 1.7 0.00 0.00 0.01 79 1012.8
20260509002825 55 218 0.0 3.5 0.00 0.00 0.01 79 1012.7
20260509001825 55 270 0.0 2.6 0.00 0.00 0.01 79 1012.7
20260509000824 55 193 0.0 2.6 0.00 0.00 0.01 80 1012.6
20260508235824 55 220 0.0 3.5 0.00 0.00 0.01 81 1012.6
20260508234824 54 101 0.9 3.5 0.00 0.00 0.01 82 1012.5
20260508233824 54 216 0.0 0.9 0.00 0.00 0.01 83 1012.5
20260508232823 53 105 0.9 4.3 0.00 0.00 0.01 82 1012.5
20260508231823 54 241 0.0 2.6 0.00 0.00 0.01 83 1012.5
20260508230822 54 270 0.0 1.7 0.00 0.00 0.01 83 1012.3
20260508225822 54 180 0.0 2.6 0.00 0.00 0.01 84 1012.2
20260508224821 53 144 0.9 0.9 0.00 0.00 0.01 85 1011.9
20260508223821 52 211 0.0 0.9 0.00 0.00 0.01 85 1011.8
20260508222821 51 151 0.0 2.6 0.00 0.00 0.01 87 1011.7
20260508221821 50 189 0.0 1.7 0.00 0.00 0.00 90 1011.4
20260508220820 49 225 0.0 1.7 0.00 0.00 0.00 93 1011.1
20260508215820 49 225 0.9 1.7 0.00 0.00 0.00 94 1010.5
20260508214819 48 180 0.0 2.6 0.00 0.00 0.00 94 1009.9
20260508213819 48 157 0.0 2.6 0.00 0.00 0.00 94 1009.6
20260508212819 48 225 0.9 0.9 0.00 0.00 0.00 93 1009.0
20260508211819 48 180 0.0 0.0 0.00 0.00 0.00 95 1008.5
20260508210818 47 180 0.0 0.9 0.00 0.00 0.00 94 1008.2